Temp
70 72 73 74 74 74 74 74 74 75 75 76 76 76 76 76 76 76 76 76 77 78 78 78 78 78 78 78 77 77 76 76 75 76 77 77 77 77 76 75 75 75 75
72 73 73 74 74 74 74 74 74 75 76 76 76 76 76 76 76 76 76 76 77 78 78 78 77 78 78 77 75 75 75 74 74 75 75 76 76 76 75 74 74 75 75
71 72 73 73 74 74 75 75 75 75 76 76 75 75 75 76 75 75 76 76 77 78 78 78 77 77 77 75 74 74 74 74 73 74 74 71 74 76 75 74 74 74 74
72 72 72 73 73 74 74 74 75 76 76 75 75 75 75 75 75 75 75 75 76 77 77 77 77 76 75 73 73 73 73 72 72 71 70 72 75 75 75 75 75 75 75
72 72 72 72 73 74 74 74 74 75 75 75 75 75 76 76 76 75 75 75 76 77 77 77 76 75 73 72 72 72 72 71 70 69 68 71 73 75 75 75 74 73 73
70 71 71 71 72 73 74 74 74 74 73 74 74 75 76 76 75 75 74 74 75 77 77 76 75 73 72 71 71 71 70 70 69 68 68 72 71 75 75 73 73 73 72
69 70 71 70 72 73 74 74 73 73 73 73 74 74 75 75 75 74 74 74 75 75 75 74 73 72 71 71 70 70 69 69 67 67 67 68 70 75 75 73 73 72 72
68 69 70 71 72 72 73 73 72 72 72 72 73 73 74 74 73 73 73 73 73 74 73 73 72 71 71 70 70 69 68 69 68 66 67 68 72 75 75 73 72 72 73
67 68 68 70 71 71 70 71 70 71 71 72 72 72 72 72 72 73 73 73 73 73 72 72 71 70 71 69 69 68 67 68 66 66 67 67 73 74 75 73 73 72 72
65 66 68 68 70 70 71 69 69 70 70 70 71 71 70 70 71 71 72 72 72 72 72 71 70 70 70 68 67 66 66 67 65 66 66 67 73 75 75 73 73 72 72
66 68 69 70 72 72 72 70 69 70 70 69 70 70 68 70 70 70 70 71 71 71 71 70 69 68 68 66 67 66 66 65 64 64 65 69 72 75 74 73 72 71 71
64 67 69 70 71 72 73 72 70 71 71 71 70 70 69 68 68 69 69 70 70 70 70 69 68 67 66 65 64 66 63 64 63 64 64 68 72 75 74 72 71 71 71
65 65 69 70 71 71 72 72 72 72 71 72 71 70 69 67 67 68 66 68 67 69 67 67 66 65 64 65 63 63 63 63 63 63 65 67 71 75 73 72 72 71 70
64 64 68 69 69 70 72 72 72 71 71 70 70 69 69 69 67 66 66 66 66 65 65 65 64 64 63 62 62 62 63 62 62 62 63 66 69 73 74 73 72 72 71
63 64 65 67 67 69 70 71 71 71 71 72 72 68 69 70 69 66 65 65 65 64 64 63 63 62 62 62 61 62 62 62 62 62 62 64 66 70 73 73 72 72 71
66 64 65 65 66 67 68 70 70 71 71 70 70 70 68 70 70 67 65 64 63 64 63 63 63 61 61 61 61 61 62 62 62 62 62 63 64 64 70 72 72 72 72
68 68 65 65 65 65 66 67 68 69 70 69 70 70 70 70 69 68 66 64 63 63 63 62 61 61 60 61 60 60 61 62 62 62 62 62 63 61 63 69 70 71 71
71 69 68 69 66 65 66 65 65 66 67 67 68 69 69 69 68 65 65 64 63 62 62 61 60 59 59 60 61 61 61 61 61 61 61 62 63 64 63 64 66 68 68
71 70 68 68 66 66 66 66 65 64 64 64 64 65 68 68 65 64 64 63 63 62 61 61 59 60 61 61 60 61 62 62 62 63 62 61 61 63 63 63 63 63 64
72 72 70 69 68 67 66 65 64 64 65 65 65 65 65 66 66 65 64 63 64 63 62 61 62 61 62 62 62 61 61 63 62 62 63 63 61 62 63 64 63 62 61
72 71 69 68 68 67 66 64 64 64 66 65 66 66 66 66 66 66 65 63 63 63 63 63 63 61 61 62 60 60 60 62 61 62 63 63 63 63 63 63 63 63 63
67 69 69 69 69 68 69 68 64 66 66 66 67 66 66 66 66 66 66 64 64 63 63 63 63 60 61 62 59 59 56 57 60 61 62 62 62 63 62 63 63 63 63
61 64 67 68 70 68 69 65 61 62 63 64 64 65 66 66 66 66 66 65 64 64 63 63 63 62 60 61 61 59 53 52 56 59 60 62 62 62 63 62 62 63 63
53 56 59 61 62 63 64 65 63 64 63 63 65 66 66 66 66 67 66 65 65 65 63 63 64 64 63 59 61 59 59 56 51 52 58 59 61 61 61 61 61 61 61
53 53 55 56 56 58 60 63 62 60 61 60 61 63 63 64 65 66 66 65 65 65 64 63 63 63 63 62 60 58 57 56 56 55 52 55 59 61 61 61 61 61 62
53 52 53 53 54 55 56 56 57 57 57 60 61 60 61 62 64 64 65 65 66 66 65 64 64 63 62 63 62 60 58 58 55 54 52 53 56 58 61 61 60 60 60
MSLP
1007.26 1007.64 1008.09 1008.74 1009.30 1009.41 1009.55 1009.78 1009.89 1009.97 1010.42 1010.71 1011.07 1011.59 1011.97 1012.32 1012.69 1013.16 1013.51 1013.78 1014.12 1014.40 1014.71 1014.97 1015.12 1015.27 1015.33 1015.40 1015.62 1015.81 1015.97 1016.03 1016.10 1016.17 1016.44 1017.02 1017.25 1017.68 1017.77 1017.44 1017.94 1018.15 1018.13
1006.24 1007.25 1007.94 1008.44 1009.10 1009.45 1009.62 1009.92 1010.08 1010.16 1010.51 1010.97 1011.24 1011.75 1012.17 1012.53 1012.91 1013.42 1013.67 1013.96 1014.25 1014.55 1014.85 1015.13 1015.22 1015.45 1015.63 1015.75 1015.96 1016.14 1016.32 1016.42 1016.55 1016.76 1016.66 1017.40 1017.27 1017.81 1018.23 1017.72 1017.88 1018.60 1018.52
1006.32 1007.18 1007.94 1008.48 1008.86 1009.42 1009.71 1010.01 1010.21 1010.40 1010.69 1011.09 1011.48 1011.96 1012.33 1012.72 1013.13 1013.56 1013.90 1014.22 1014.38 1014.66 1015.01 1015.33 1015.51 1015.70 1015.94 1016.13 1016.32 1016.57 1016.73 1016.87 1016.99 1017.14 1017.22 1017.63 1017.99 1018.34 1018.39 1018.08 1018.59 1018.55 1018.87
1006.04 1007.05 1007.81 1008.45 1008.88 1009.17 1009.69 1010.10 1010.35 1010.68 1010.96 1011.27 1011.74 1012.13 1012.46 1012.87 1013.31 1013.69 1014.08 1014.29 1014.51 1014.83 1015.13 1015.44 1015.75 1015.97 1016.21 1016.43 1016.67 1016.79 1016.96 1017.12 1017.38 1017.59 1017.78 1017.90 1018.27 1018.35 1018.43 1018.61 1018.72 1018.91 1019.15
1006.44 1007.07 1007.80 1008.31 1008.75 1009.08 1009.39 1010.12 1010.49 1010.83 1011.19 1011.47 1011.90 1012.34 1012.62 1012.99 1013.34 1013.84 1014.14 1014.41 1014.59 1014.87 1015.13 1015.45 1015.85 1016.22 1016.42 1016.68 1016.93 1017.18 1017.41 1017.57 1017.78 1018.02 1018.17 1018.30 1018.44 1018.50 1018.69 1018.94 1019.11 1019.29 1019.51
1006.70 1007.17 1007.89 1008.44 1008.80 1009.02 1009.30 1009.88 1010.55 1010.84 1011.26 1011.63 1011.99 1012.42 1012.79 1013.16 1013.46 1013.93 1014.25 1014.50 1014.65 1014.95 1015.22 1015.61 1016.05 1016.37 1016.67 1016.96 1017.24 1017.46 1017.73 1017.94 1018.15 1018.40 1018.44 1018.46 1018.61 1018.82 1019.07 1019.26 1019.56 1019.81 1019.96
1006.82 1007.32 1007.99 1008.38 1008.66 1009.14 1009.34 1009.90 1010.47 1010.90 1011.29 1011.68 1012.03 1012.37 1012.85 1013.25 1013.59 1013.96 1014.31 1014.56 1014.80 1015.11 1015.37 1015.76 1016.26 1016.59 1016.89 1017.18 1017.48 1017.71 1017.88 1018.11 1018.32 1018.65 1018.80 1018.82 1018.92 1019.09 1019.27 1019.56 1019.82 1020.03 1020.25
1007.09 1007.54 1008.06 1008.55 1008.71 1009.16 1009.60 1009.92 1010.44 1010.99 1011.28 1011.73 1012.12 1012.37 1012.80 1013.24 1013.67 1014.08 1014.46 1014.68 1014.93 1015.24 1015.54 1015.96 1016.41 1016.78 1017.06 1017.40 1017.61 1017.93 1018.12 1018.33 1018.60 1018.84 1018.95 1019.03 1018.98 1019.16 1019.52 1019.79 1020.00 1020.23 1020.42
1007.72 1008.13 1008.38 1008.61 1008.66 1008.83 1009.67 1010.18 1010.38 1010.94 1011.31 1011.70 1012.15 1012.42 1012.82 1013.26 1013.62 1014.08 1014.42 1014.78 1015.11 1015.38 1015.69 1016.05 1016.54 1016.89 1017.16 1017.51 1017.87 1018.10 1018.29 1018.48 1018.73 1018.96 1019.06 1019.13 1019.02 1019.14 1019.63 1020.01 1020.07 1020.28 1020.54
1008.04 1008.41 1008.67 1008.89 1009.07 1008.80 1009.21 1010.19 1010.67 1010.97 1011.37 1011.71 1012.14 1012.48 1012.85 1013.27 1013.67 1014.03 1014.36 1014.70 1015.15 1015.54 1015.89 1016.17 1016.64 1016.93 1017.23 1017.70 1017.93 1018.23 1018.35 1018.58 1018.83 1019.05 1019.18 1019.31 1019.32 1019.47 1019.89 1020.30 1020.56 1020.33 1020.79
1008.23 1008.57 1008.96 1009.10 1009.13 1009.50 1009.47 1009.90 1010.69 1011.18 1011.51 1011.83 1012.26 1012.61 1012.97 1013.37 1013.73 1014.08 1014.37 1014.64 1015.00 1015.53 1015.97 1016.31 1016.74 1017.04 1017.30 1017.82 1018.03 1018.25 1018.45 1018.73 1018.88 1019.11 1019.33 1019.38 1019.49 1019.60 1019.94 1020.35 1020.70 1020.84 1021.13
1008.02 1008.19 1008.59 1008.93 1009.29 1009.52 1009.81 1009.68 1010.32 1011.02 1011.62 1011.96 1012.32 1012.72 1013.06 1013.36 1013.70 1014.04 1014.34 1014.66 1014.93 1015.41 1015.89 1016.33 1016.82 1017.14 1017.46 1017.94 1018.22 1018.46 1018.66 1018.83 1019.01 1019.12 1019.33 1019.40 1019.56 1019.63 1020.02 1020.40 1020.98 1021.18 1021.28
1006.84 1007.84 1008.12 1008.65 1009.04 1009.49 1009.74 1009.99 1010.27 1010.63 1011.03 1011.57 1012.09 1012.47 1012.93 1013.39 1013.73 1014.10 1014.38 1014.74 1015.00 1015.36 1015.84 1016.25 1016.89 1017.27 1017.67 1017.97 1018.31 1018.57 1018.73 1018.87 1019.06 1019.20 1019.23 1019.30 1019.48 1019.56 1019.96 1020.42 1020.79 1021.39 1021.55
1006.59 1007.05 1007.77 1008.35 1008.88 1009.21 1009.50 1009.83 1010.15 1010.50 1010.80 1011.14 1011.56 1012.15 1012.62 1013.15 1013.65 1014.01 1014.28 1014.63 1014.89 1015.31 1015.78 1016.19 1016.77 1017.25 1017.65 1018.00 1018.24 1018.52 1018.66 1018.87 1019.02 1019.14 1019.18 1019.21 1019.38 1019.55 1019.86 1020.21 1020.40 1021.07 1021.63
1007.30 1007.28 1007.46 1007.96 1008.52 1008.81 1009.33 1009.68 1009.84 1010.13 1010.66 1010.95 1011.24 1011.80 1012.19 1012.68 1013.23 1013.75 1014.10 1014.43 1014.77 1015.19 1015.68 1016.26 1016.62 1017.20 1017.61 1018.01 1018.21 1018.36 1018.63 1018.77 1018.97 1019.08 1019.16 1019.17 1019.28 1019.37 1019.62 1019.89 1020.31 1020.77 1021.35
1006.72 1007.06 1007.44 1007.62 1008.01 1008.56 1008.75 1009.25 1009.69 1009.85 1010.08 1010.72 1011.19 1011.39 1011.86 1012.15 1012.67 1013.42 1013.97 1014.29 1014.61 1014.96 1015.46 1016.08 1016.54 1017.07 1017.55 1017.87 1018.20 1018.36 1018.49 1018.75 1018.96 1019.09 1019.10 1019.22 1019.23 1019.47 1019.55 1019.70 1020.07 1020.42 1020.91
1005.63 1006.03 1006.86 1007.39 1007.75 1008.08 1008.50 1008.85 1009.30 1009.67 1010.08 1010.38 1010.74 1011.21 1011.70 1012.05 1012.43 1013.00 1013.69 1014.21 1014.41 1014.84 1015.32 1016.05 1016.64 1017.11 1017.60 1017.94 1018.21 1018.36 1018.48 1018.62 1018.86 1019.19 1019.24 1019.25 1019.26 1019.40 1019.63 1019.65 1019.89 1020.13 1020.42
1004.64 1005.34 1005.77 1006.80 1007.20 1007.43 1007.80 1008.26 1008.61 1009.11 1009.75 1010.25 1010.51 1010.93 1011.43 1011.97 1012.37 1012.80 1013.38 1013.97 1014.35 1014.81 1015.20 1015.95 1016.60 1017.16 1017.59 1018.02 1018.25 1018.28 1018.46 1018.61 1018.80 1019.00 1019.25 1019.34 1019.42 1019.47 1019.62 1019.73 1019.86 1020.17 1020.33
1003.39 1004.36 1005.01 1005.63 1006.33 1006.62 1007.25 1008.12 1008.48 1008.57 1009.24 1009.90 1010.37 1010.76 1011.09 1011.57 1012.11 1012.53 1013.08 1013.61 1014.09 1014.72 1015.10 1015.72 1016.42 1016.81 1017.46 1017.82 1018.15 1018.26 1018.38 1018.49 1018.55 1018.73 1018.95 1019.25 1019.45 1019.56 1019.58 1019.63 1019.82 1020.07 1020.05
1002.29 1003.06 1003.77 1004.43 1005.23 1006.01 1006.97 1007.80 1008.63 1008.88 1008.82 1009.14 1009.66 1009.92 1010.42 1010.87 1011.39 1012.10 1012.69 1013.30 1013.70 1014.50 1014.91 1015.38 1015.94 1016.50 1016.80 1017.27 1017.82 1018.05 1018.19 1018.27 1018.28 1018.46 1018.69 1018.83 1019.15 1019.38 1019.47 1019.51 1019.65 1019.99 1020.24
1001.20 1001.80 1002.64 1003.58 1004.27 1005.50 1006.27 1006.78 1007.72 1007.91 1008.18 1008.40 1008.81 1009.10 1009.57 1010.16 1010.86 1011.51 1012.22 1012.86 1013.36 1013.91 1014.31 1014.88 1015.49 1016.05 1016.54 1016.90 1017.45 1017.71 1017.83 1017.95 1018.00 1018.06 1018.20 1018.44 1018.67 1018.90 1019.10 1019.31 1019.41 1019.63 1020.01
1000.32 1000.67 1001.55 1002.32 1003.34 1004.12 1004.89 1005.54 1006.39 1006.85 1007.58 1008.10 1008.30 1008.47 1008.98 1009.48 1009.96 1010.64 1011.34 1011.98 1012.67 1013.30 1013.82 1014.26 1014.71 1015.42 1016.00 1016.33 1016.89 1017.36 1017.66 1017.91 1017.74 1017.74 1017.97 1018.12 1018.29 1018.47 1018.63 1018.82 1019.06 1019.26 1019.57
1000.29 1000.17 1000.69 1001.61 1002.34 1002.98 1003.90 1005.21 1006.30 1006.89 1007.44 1007.92 1008.25 1008.24 1008.20 1008.84 1009.36 1009.82 1010.32 1011.11 1011.92 1012.50 1012.96 1013.33 1013.75 1014.44 1015.13 1015.72 1015.99 1016.43 1017.25 1017.41 1017.48 1017.40 1017.48 1017.70 1017.80 1017.94 1018.01 1018.31 1018.59 1018.84 1019.05
1000.45 1000.58 1001.17 1001.89 1002.56 1003.10 1003.66 1004.59 1005.48 1005.99 1006.63 1006.81 1007.23 1008.01 1008.17 1008.23 1008.66 1009.02 1009.91 1010.12 1010.99 1011.59 1012.15 1012.57 1013.06 1013.33 1014.02 1014.81 1015.59 1015.85 1016.01 1016.35 1017.13 1017.46 1017.39 1017.39 1017.52 1017.58 1017.66 1017.80 1018.05 1018.35 1018.59
1001.71 1001.68 1002.15 1002.66 1003.23 1003.71 1004.01 1004.57 1005.34 1005.80 1006.16 1006.69 1007.01 1007.69 1008.20 1008.20 1008.20 1009.12 1009.30 1009.70 1010.36 1010.84 1011.18 1011.74 1012.35 1012.86 1013.07 1013.53 1014.23 1015.03 1015.77 1016.10 1016.32 1016.73 1017.05 1017.23 1017.13 1016.99 1017.23 1017.32 1017.52 1017.96 1017.90
1002.59 1002.95 1003.53 1003.71 1004.42 1004.71 1004.83 1005.56 1005.85 1006.31 1006.80 1006.81 1006.69 1006.26 1007.16 1007.39 1008.94 1009.00 1008.93 1009.43 1010.00 1009.95 1010.27 1010.71 1011.20 1011.67 1012.28 1012.78 1013.18 1013.75 1014.11 1014.95 1015.67 1016.11 1016.49 1016.60 1016.62 1016.60 1016.61 1016.86 1016.99 1017.23 1017.28
Wind_Speed
6 12 17 15 12 14 15 15 14 14 17 17 19 19 20 20 19 17 16 16 15 14 15 14 12 10 10 11 10 10 10 10 12 15 16 16 16 15 15 16 12 10 15
12 14 17 17 14 14 15 15 15 15 15 18 19 19 19 19 19 17 16 16 16 15 16 14 12 12 12 13 11 11 11 11 10 14 14 16 16 15 14 16 14 11 14
16 13 14 16 16 15 15 16 16 16 16 16 17 18 18 18 18 17 16 15 16 15 15 14 14 13 13 13 13 13 12 10 10 10 10 4 8 15 14 15 14 15 15
17 13 13 16 16 17 15 15 16 17 17 17 17 17 18 18 17 16 16 15 16 15 15 14 14 14 13 12 13 13 12 12 11 11 6 7 7 15 16 15 15 16 16
14 13 12 17 17 18 17 15 15 16 16 17 17 17 17 17 17 15 15 14 15 15 15 15 15 14 12 12 12 11 12 12 11 9 5 5 5 12 15 15 13 14 14
12 12 13 17 17 18 18 16 15 16 15 16 17 17 17 17 16 15 13 14 15 15 15 15 15 13 12 12 12 12 11 10 9 5 5 6 6 13 15 15 11 12 13
12 10 13 16 17 17 18 17 15 15 15 16 16 16 16 16 15 14 13 13 14 15 15 14 14 12 12 13 12 11 11 10 6 5 4 4 5 13 16 15 13 13 14
12 10 11 14 16 16 16 16 15 14 15 15 15 15 15 14 14 13 12 13 13 13 14 14 13 11 11 12 11 10 10 9 5 5 5 4 9 15 15 15 12 12 14
6 8 8 10 13 15 13 13 14 14 14 14 14 14 13 13 13 12 12 11 12 12 13 13 13 11 11 11 10 10 8 8 5 4 4 3 10 14 15 15 15 12 14
5 5 8 6 7 10 12 13 12 13 13 13 13 13 13 12 12 12 12 11 11 11 11 13 12 11 10 11 10 9 8 8 5 4 3 3 11 14 14 14 12 16 14
5 9 11 11 10 11 12 11 12 13 13 12 11 12 11 6 8 9 8 11 12 11 10 10 11 10 9 11 10 9 9 3 4 3 2 6 11 13 15 14 14 14 15
13 15 13 13 12 12 9 12 10 10 8 8 7 8 5 6 6 6 8 11 11 12 11 10 10 9 8 3 3 6 3 4 3 4 3 7 10 14 15 14 13 14 16
14 10 16 14 13 13 10 9 7 6 7 8 11 10 7 4 4 4 3 4 4 8 5 6 6 4 6 6 3 3 4 4 3 3 4 9 10 14 14 17 17 13 15
17 14 15 16 15 15 8 9 9 9 8 7 9 12 9 6 6 5 4 4 4 4 6 5 4 5 5 5 5 5 5 4 3 2 4 9 11 15 17 19 19 18 15
9 11 14 16 15 14 13 10 10 10 9 10 10 9 9 9 9 6 4 5 4 4 4 5 5 5 5 5 5 5 5 4 4 3 3 9 11 12 18 19 19 18 18
10 12 11 14 13 13 13 14 11 10 11 10 9 11 9 9 8 7 6 5 4 5 4 5 6 5 4 5 5 5 5 4 4 4 3 4 10 9 14 18 18 20 20
15 13 14 13 12 13 12 12 11 10 10 10 10 12 13 11 9 9 7 5 5 4 6 5 4 4 4 3 4 4 4 4 4 4 4 3 3 5 6 12 17 18 21
15 15 15 13 15 14 14 11 9 9 9 9 9 8 13 12 11 7 7 6 4 4 5 4 4 4 4 4 4 4 4 3 4 4 3 3 2 2 3 5 8 16 17
17 15 16 16 17 17 13 8 8 10 8 5 5 7 12 12 9 7 6 5 7 5 5 6 2 4 5 4 3 3 3 4 5 3 4 4 3 3 2 5 6 5 11
17 18 17 15 16 16 9 6 4 5 7 7 8 9 11 10 11 8 6 7 7 6 5 5 5 4 4 5 4 4 4 5 4 4 5 4 4 5 4 5 4 3 8
16 19 18 18 17 12 10 11 9 12 10 9 8 11 11 10 11 10 7 7 7 8 9 9 6 6 3 6 3 2 2 6 7 5 5 5 6 6 5 5 4 5 5
18 18 18 18 17 15 12 11 4 9 7 6 7 9 10 12 12 11 10 10 10 8 9 10 9 4 4 7 3 2 3 2 4 6 6 6 8 6 7 8 8 9 7
10 15 15 16 16 16 15 7 3 5 4 4 7 7 10 12 12 12 12 10 10 9 9 11 11 11 6 6 6 4 2 5 2 2 8 7 8 8 7 8 9 9 9
3 7 9 8 7 6 9 10 9 8 7 5 6 3 7 13 13 13 12 12 11 9 9 10 9 11 9 7 4 2 1 5 4 2 2 4 7 8 9 6 8 9 10
10 11 11 13 11 9 7 8 8 6 4 3 5 6 2 5 6 7 11 11 11 9 10 11 11 11 9 9 6 4 2 2 2 3 3 3 5 6 7 8 9 8 11
15 15 13 15 14 13 13 10 9 7 3 4 5 4 2 4 4 8 9 10 12 12 11 11 13 15 12 9 9 7 6 5 4 3 2 3 5 4 6 7 9 8 8
Wind_Direction
194 160 155 152 154 142 134 133 129 123 119 119 120 122 125 127 129 130 130 126 124 120 117 114 108 104 100 109 109 110 108 113 119 118 121 119 117 117 114 103 92 101 105
136 155 153 152 155 144 135 133 130 125 120 122 122 123 127 128 127 131 129 127 124 122 119 117 110 106 102 98 99 102 102 108 119 121 122 123 126 120 117 108 103 109 107
140 150 150 154 151 146 139 135 134 131 128 123 122 127 129 131 130 132 131 128 125 125 122 116 114 112 110 102 101 96 97 103 99 101 104 77 108 126 120 107 118 116 115
141 148 153 155 153 147 142 140 138 137 133 131 131 132 133 135 134 136 134 132 127 125 121 121 120 117 113 110 108 108 103 93 89 86 77 93 121 128 119 115 117 120 121
140 149 156 156 156 152 147 145 144 139 138 136 137 139 139 139 140 141 138 136 131 131 129 127 123 119 115 113 106 102 96 93 95 88 90 109 115 127 122 119 122 122 120
144 150 157 159 158 155 151 151 151 146 142 142 142 144 145 146 144 146 142 138 136 136 134 131 125 120 122 117 108 107 104 104 106 105 110 123 109 129 124 118 116 113 111
150 149 161 160 158 158 157 156 156 153 149 148 147 147 149 150 147 146 147 146 140 141 135 133 127 128 130 125 120 120 125 118 114 113 109 121 143 138 134 129 120 118 116
146 151 161 162 158 159 161 161 159 159 154 153 153 150 151 151 147 148 148 143 140 139 137 137 131 136 137 132 135 121 129 125 128 130 136 146 159 142 143 136 126 128 112
129 146 161 171 165 156 158 165 160 161 161 159 159 154 151 150 151 153 150 145 141 143 141 141 138 145 149 132 139 136 128 133 141 152 152 160 164 145 148 150 138 123 107
118 151 162 169 172 162 161 162 163 163 164 163 163 157 154 156 158 160 156 154 148 148 150 146 144 151 149 132 147 144 138 144 149 151 147 171 150 155 154 154 144 126 124
156 171 174 172 174 180 172 167 165 167 167 164 163 160 153 160 167 166 165 164 154 154 156 151 145 149 142 136 156 151 143 147 148 144 158 192 174 167 166 155 152 137 137
184 181 180 177 179 179 183 167 162 169 174 175 169 168 159 157 164 163 166 169 159 157 155 156 147 144 126 127 149 146 152 157 163 163 176 192 183 183 174 155 153 150 146
177 174 183 180 178 179 179 174 173 176 172 178 178 175 170 155 159 165 152 171 161 162 155 145 136 143 141 159 162 171 180 164 178 185 194 200 199 194 177 164 157 166 159
182 181 179 180 181 180 176 178 179 180 180 177 181 177 172 174 176 173 170 173 164 158 155 152 149 150 148 151 166 172 187 185 187 192 205 202 208 199 183 174 168 171 173
207 191 185 179 182 180 178 182 182 182 188 190 188 177 175 182 184 177 176 170 169 153 154 156 152 152 154 159 175 182 190 204 202 191 208 213 213 214 190 184 177 177 177
194 203 187 191 181 181 180 183 185 188 184 187 194 193 180 183 184 185 182 176 171 168 151 156 166 161 166 162 176 194 203 201 213 210 205 231 219 247 202 196 189 186 183
204 188 196 192 182 183 185 181 184 188 192 190 192 195 193 191 187 186 181 178 175 159 144 131 134 125 142 161 182 186 191 212 213 215 228 222 215 236 260 218 203 199 189
198 189 188 191 193 188 194 186 180 179 188 193 189 185 194 195 190 175 173 178 155 153 150 151 152 149 164 178 189 189 193 198 216 222 230 238 232 221 234 236 237 211 205
189 191 185 188 195 196 194 189 189 169 171 168 160 178 190 194 178 170 169 159 157 162 162 160 147 141 183 193 183 180 186 190 205 200 222 221 225 237 218 211 213 213 265
194 190 190 187 194 193 176 166 177 186 180 176 186 187 177 187 179 170 164 163 164 171 168 163 167 167 171 184 186 188 190 205 186 187 210 215 209 218 209 202 198 216 220
201 189 183 184 191 175 178 176 187 199 198 191 191 186 184 179 178 179 176 170 171 181 182 181 175 172 173 167 138 163 200 209 198 199 194 203 211 212 205 206 195 194 202
200 192 187 190 183 184 187 193 175 186 199 203 190 180 183 185 177 182 179 180 182 179 178 178 174 150 176 171 154 138 200 272 225 197 197 199 208 209 211 210 205 197 193
206 191 189 189 187 186 183 156 93 100 98 145 194 194 187 183 183 184 182 178 184 185 189 187 181 177 171 181 178 152 145 217 164 194 218 214 214 215 210 201 207 192 189
63 111 109 108 121 138 146 162 170 174 174 199 195 212 196 187 187 192 188 177 188 189 188 190 189 189 164 179 179 193 136 145 180 241 245 226 227 227 214 197 198 189 180
80 78 83 88 74 73 94 137 144 136 130 130 126 125 65 299 207 191 197 184 198 195 196 187 187 191 194 174 179 155 162 146 115 141 211 214 216 215 211 202 198 195 187
63 65 67 76 68 65 71 61 78 77 98 143 174 121 212 65 265 218 208 198 206 204 196 192 188 186 189 193 192 184 170 176 180 160 186 202 219 215 209 209 199 189 185